Time,TemperatureF,DewpointF,PressureIn,WindDirection,WindDirectionDegrees,WindSpeedMPH,WindSpeedGustMPH,Humidity,HourlyPrecipIn,Conditions,Clouds,dailyrainin,SoftwareType,DateUTC
2013-03-01 00:00:00,32.5,-12.8,27.29,SE,136,2.2,3.6,13,0.00,,---,0.00,VWS V14.01,2013-03-01 05:00:00,
2013-03-01 00:05:00,32.5,-12.8,27.29,NNE,32,3.1,8.1,13,0.00,,---,0.00,VWS V14.01,2013-03-01 05:05:00,
2013-03-01 00:06:00,32.5,-12.8,27.29,ENE,69,4.9,8.1,13,0.00,,---,0.00,VWS V14.01,2013-03-01 05:06:00,
2013-03-01 00:11:00,32.5,-12.8,27.29,SE,143,5.8,5.8,13,0.00,,---,0.00,VWS V14.01,2013-03-01 05:11:00,
2013-03-01 00:16:00,32.5,-12.8,27.29,SW,232,2.2,2.2,13,0.00,,---,0.00,VWS V14.01,2013-03-01 05:16:00,
2013-03-01 00:21:00,32.5,-12.8,27.26,SSE,167,2.7,2.7,13,0.00,,---,0.00,VWS V14.01,2013-03-01 05:21:00,
2013-03-01 00:26:00,32.5,-12.8,27.26,West,259,3.1,3.1,13,0.00,,---,0.00,VWS V14.01,2013-03-01 05:26:00,
2013-03-01 00:31:00,32.5,-12.8,27.26,East,90,0.0,2.7,13,0.00,,---,0.00,VWS V14.01,2013-03-01 05:31:00,
2013-03-01 00:36:00,32.5,-12.8,27.29,West,278,2.2,2.7,13,0.00,,---,0.00,VWS V14.01,2013-03-01 05:36:00,
2013-03-01 00:41:00,32.5,-12.8,27.29,South,185,2.7,3.1,13,0.00,,---,0.00,VWS V14.01,2013-03-01 05:41:00,
2013-03-01 00:46:00,32.5,-12.8,27.29,SSW,192,0.0,0.0,13,0.00,,---,0.00,VWS V14.01,2013-03-01 05:46:00,
2013-03-01 00:51:00,32.5,-10.0,27.29,East,101,3.6,3.6,15,0.00,,---,0.00,VWS V14.01,2013-03-01 05:51:00,
2013-03-01 00:56:00,32.5,-10.0,27.29,SE,144,4.0,5.4,15,0.00,,---,0.00,VWS V14.01,2013-03-01 05:56:00,
2013-03-01 01:01:00,32.5,-10.0,27.29,WSW,241,2.7,2.7,15,0.00,,---,0.00,VWS V14.01,2013-03-01 06:01:00,
2013-03-01 01:06:00,32.5,-10.0,27.29,South,189,2.7,2.7,15,0.00,,---,0.00,VWS V14.01,2013-03-01 06:06:00,
2013-03-01 01:11:00,32.5,-10.0,27.29,SSE,156,3.6,4.9,15,0.00,,---,0.00,VWS V14.01,2013-03-01 06:11:00,
2013-03-01 01:16:00,32.4,-10.1,27.29,SE,139,0.0,2.7,15,0.00,,---,0.00,VWS V14.01,2013-03-01 06:16:00,
2013-03-01 01:21:00,32.4,-10.1,27.29,SE,136,2.2,4.0,15,0.00,,---,0.00,VWS V14.01,2013-03-01 06:21:00,
2013-03-01 01:26:00,32.5,-10.0,27.29,SE,135,4.9,5.4,15,0.00,,---,0.00,VWS V14.01,2013-03-01 06:26:00,
2013-03-01 01:31:00,32.5,-10.0,27.29,ESE,115,4.9,4.9,15,0.00,,---,0.00,VWS V14.01,2013-03-01 06:31:00,
2013-03-01 01:36:00,32.4,-10.1,27.29,ESE,117,0.0,4.0,15,0.00,,---,0.00,VWS V14.01,2013-03-01 06:36:00,
2013-03-01 01:41:00,32.5,-10.0,27.29,East,99,3.1,5.8,15,0.00,,---,0.00,VWS V14.01,2013-03-01 06:41:00,
2013-03-01 01:46:00,32.4,-10.1,27.29,ENE,78,3.1,8.7,15,0.00,,---,0.00,VWS V14.01,2013-03-01 06:46:00,
2013-03-01 01:51:00,32.4,-10.1,27.29,ENE,74,4.9,4.9,15,0.00,,---,0.00,VWS V14.01,2013-03-01 06:51:00,
2013-03-01 01:56:00,32.2,-10.3,27.29,South,171,0.0,0.0,15,0.00,,---,0.00,VWS V14.01,2013-03-01 06:56:00,
2013-03-01 02:01:00,32.2,-6.6,27.29,NE,35,3.1,5.8,18,0.00,,---,0.00,VWS V14.01,2013-03-01 07:01:00,
2013-03-01 02:06:00,32.2,-6.6,27.29,WNW,296,0.0,0.0,18,0.00,,---,0.00,VWS V14.01,2013-03-01 07:06:00,
2013-03-01 02:11:00,32.0,-6.7,27.29,North,6,2.7,2.7,18,0.00,,---,0.00,VWS V14.01,2013-03-01 07:11:00,
2013-03-01 02:16:00,32.0,-6.7,27.29,SSE,152,2.7,4.0,18,0.00,,---,0.00,VWS V14.01,2013-03-01 07:16:00,
2013-03-01 02:21:00,31.8,-6.8,27.29,ESE,109,2.7,5.8,18,0.00,,---,0.00,VWS V14.01,2013-03-01 07:21:00,
2013-03-01 02:26:00,31.8,-4.7,27.29,NE,34,4.0,7.6,20,0.00,,---,0.00,VWS V14.01,2013-03-01 07:26:00,
2013-03-01 02:31:00,31.8,-4.7,27.29,West,279,2.7,5.8,20,0.00,,---,0.00,VWS V14.01,2013-03-01 07:31:00,
2013-03-01 02:36:00,31.6,-4.8,27.26,ENE,65,4.9,5.4,20,0.00,,---,0.00,VWS V14.01,2013-03-01 07:36:00,
2013-03-01 02:41:00,31.6,-4.8,27.26,SW,228,3.6,4.0,20,0.00,,---,0.00,VWS V14.01,2013-03-01 07:41:00,
2013-03-01 02:46:00,31.6,-4.8,27.26,NNE,33,5.4,5.4,20,0.00,,---,0.00,VWS V14.01,2013-03-01 07:46:00,
2013-03-01 02:51:00,31.6,-1.9,27.26,SW,218,7.6,7.6,23,0.00,,---,0.00,VWS V14.01,2013-03-01 07:51:00,
2013-03-01 02:56:00,31.5,-2.0,27.26,ESE,103,5.4,9.6,23,0.00,,---,0.00,VWS V14.01,2013-03-01 07:56:00,
2013-03-01 03:01:00,31.6,-1.9,27.26,SE,138,4.9,8.3,23,0.00,,---,0.00,VWS V14.01,2013-03-01 08:01:00,
2013-03-01 03:06:00,31.6,-1.9,27.26,ENE,63,3.1,6.3,23,0.00,,---,0.00,VWS V14.01,2013-03-01 08:06:00,
2013-03-01 03:11:00,31.6,-1.9,27.26,NW,308,2.7,2.7,23,0.00,,---,0.00,VWS V14.01,2013-03-01 08:11:00,
2013-03-01 03:16:00,31.5,-2.0,27.26,ESE,109,2.7,4.9,23,0.00,,---,0.00,VWS V14.01,2013-03-01 08:16:00,
2013-03-01 03:21:00,31.6,-1.9,27.26,SE,138,0.0,5.8,23,0.00,,---,0.00,VWS V14.01,2013-03-01 08:21:00,
2013-03-01 03:26:00,31.5,-2.0,27.26,SE,134,6.7,6.7,23,0.00,,---,0.00,VWS V14.01,2013-03-01 08:26:00,
2013-03-01 03:31:00,31.5,-2.0,27.26,East,92,10.1,10.1,23,0.00,,---,0.00,VWS V14.01,2013-03-01 08:31:00,
2013-03-01 03:36:00,31.5,-2.0,27.26,East,101,5.4,5.8,23,0.00,,---,0.00,VWS V14.01,2013-03-01 08:36:00,
2013-03-01 03:41:00,31.5,-2.0,27.26,SE,146,2.7,3.1,23,0.00,,---,0.00,VWS V14.01,2013-03-01 08:41:00,
2013-03-01 03:46:00,31.6,-0.1,27.26,WSW,251,4.0,4.0,25,0.00,,---,0.00,VWS V14.01,2013-03-01 08:46:00,
2013-03-01 03:51:00,31.6,-0.1,27.26,ENE,76,5.4,5.4,25,0.00,,---,0.00,VWS V14.01,2013-03-01 08:51:00,
2013-03-01 03:56:00,31.6,-0.1,27.26,ESE,112,2.2,3.6,25,0.00,,---,0.00,VWS V14.01,2013-03-01 08:56:00,
2013-03-01 04:01:00,31.6,-0.1,27.26,NE,48,0.0,2.2,25,0.00,,---,0.00,VWS V14.01,2013-03-01 09:01:00,
2013-03-01 04:06:00,31.6,-0.1,27.26,SE,138,6.3,8.1,25,0.00,,---,0.00,VWS V14.01,2013-03-01 09:06:00,
2013-03-01 04:11:00,31.8,0.0,27.26,SE,130,4.0,5.4,25,0.00,,---,0.00,VWS V14.01,2013-03-01 09:11:00,
2013-03-01 04:16:00,31.8,0.0,27.26,ESE,104,2.7,4.9,25,0.00,,---,0.00,VWS V14.01,2013-03-01 09:16:00,
2013-03-01 04:21:00,31.8,0.0,27.26,ESE,117,2.7,2.7,25,0.00,,---,0.00,VWS V14.01,2013-03-01 09:21:00,
2013-03-01 04:26:00,31.8,0.0,27.26,SE,133,4.0,4.0,25,0.00,,---,0.00,VWS V14.01,2013-03-01 09:26:00,
2013-03-01 04:31:00,31.8,0.0,27.26,NE,56,3.6,4.0,25,0.00,,---,0.00,VWS V14.01,2013-03-01 09:31:00,
2013-03-01 04:35:00,31.8,0.0,27.26,SE,127,0.0,4.0,25,0.00,,---,0.00,VWS V14.01,2013-03-01 09:35:00,
2013-03-01 04:41:00,31.8,0.0,27.26,East,92,2.2,5.8,25,0.00,,---,0.00,VWS V14.01,2013-03-01 09:41:00,
2013-03-01 04:46:00,31.8,0.0,27.26,ENE,59,2.7,3.6,25,0.00,,---,0.00,VWS V14.01,2013-03-01 09:46:00,
2013-03-01 04:51:00,31.8,0.0,27.29,ENE,73,5.4,5.4,25,0.00,,---,0.00,VWS V14.01,2013-03-01 09:51:00,
2013-03-01 04:56:00,31.8,0.0,27.29,East,91,2.7,4.9,25,0.00,,---,0.00,VWS V14.01,2013-03-01 09:56:00,
2013-03-01 05:01:00,31.6,-0.1,27.29,ENE,61,2.2,3.6,25,0.00,,---,0.00,VWS V14.01,2013-03-01 10:01:00,
2013-03-01 05:06:00,31.6,-0.1,27.29,NE,55,3.1,5.4,25,0.00,,---,0.00,VWS V14.01,2013-03-01 10:06:00,
2013-03-01 05:11:00,31.6,-0.1,27.29,ESE,107,2.7,3.1,25,0.00,,---,0.00,VWS V14.01,2013-03-01 10:11:00,
2013-03-01 05:16:00,31.8,2.4,27.29,ENE,65,2.2,3.1,28,0.00,,---,0.00,VWS V14.01,2013-03-01 10:16:00,
2013-03-01 05:20:00,31.8,2.4,27.29,East,99,4.5,6.3,28,0.00,,---,0.00,VWS V14.01,2013-03-01 10:20:00,
2013-03-01 05:25:00,31.8,2.4,27.29,SE,129,3.1,6.3,28,0.00,,---,0.00,VWS V14.01,2013-03-01 10:25:00,
2013-03-01 05:31:00,31.8,2.4,27.29,SW,222,0.0,4.9,28,0.00,,---,0.00,VWS V14.01,2013-03-01 10:31:00,
2013-03-01 05:36:00,31.8,0.0,27.29,West,271,0.0,0.0,25,0.00,,---,0.00,VWS V14.01,2013-03-01 10:36:00,
2013-03-01 05:41:00,31.8,0.0,27.29,NW,306,0.0,2.7,25,0.00,,---,0.00,VWS V14.01,2013-03-01 10:41:00,
2013-03-01 05:46:00,32.0,0.2,27.29,SE,129,3.1,4.0,25,0.00,,---,0.00,VWS V14.01,2013-03-01 10:46:00,
2013-03-01 05:51:00,32.0,0.2,27.29,South,190,3.1,3.1,25,0.00,,---,0.00,VWS V14.01,2013-03-01 10:51:00,
2013-03-01 05:56:00,32.0,0.2,27.29,SE,142,3.6,3.6,25,0.00,,---,0.00,VWS V14.01,2013-03-01 10:56:00,
2013-03-01 06:00:00,32.0,0.2,27.29,West,261,2.7,2.7,25,0.00,,---,0.00,VWS V14.01,2013-03-01 11:00:00,
2013-03-01 06:06:00,32.0,-1.6,27.29,WSW,246,3.1,5.4,23,0.00,,---,0.00,VWS V14.01,2013-03-01 11:06:00,
2013-03-01 06:10:00,32.0,-1.6,27.29,SSW,193,0.0,0.0,23,0.00,,---,0.00,VWS V14.01,2013-03-01 11:10:00,
2013-03-01 06:15:00,32.0,-1.6,27.29,SE,125,3.6,4.0,23,0.00,,---,0.00,VWS V14.01,2013-03-01 11:15:00,
2013-03-01 06:20:00,32.2,-1.4,27.29,WNW,292,3.6,4.0,23,0.00,,---,0.00,VWS V14.01,2013-03-01 11:20:00,
2013-03-01 06:26:00,32.0,-1.6,27.29,SW,215,2.2,2.2,23,0.00,,---,0.00,VWS V14.01,2013-03-01 11:26:00,
2013-03-01 06:31:00,32.2,-1.4,27.29,SE,145,0.0,2.7,23,0.00,,---,0.00,VWS V14.01,2013-03-01 11:31:00,
2013-03-01 06:36:00,32.2,-1.4,27.29,ENE,59,2.7,4.0,23,0.00,,---,0.00,VWS V14.01,2013-03-01 11:36:00,
2013-03-01 06:41:00,32.2,-1.4,27.29,SE,126,0.0,0.0,23,0.00,,---,0.00,VWS V14.01,2013-03-01 11:41:00,
2013-03-01 06:46:00,32.2,0.3,27.29,East,97,3.6,3.6,25,0.00,,---,0.00,VWS V14.01,2013-03-01 11:46:00,
2013-03-01 06:51:00,32.2,0.3,27.29,SSE,148,0.0,0.0,25,0.00,,---,0.00,VWS V14.01,2013-03-01 11:51:00,
2013-03-01 06:56:00,32.2,-1.4,27.29,SSE,148,0.0,0.0,23,0.00,,---,0.00,VWS V14.01,2013-03-01 11:56:00,
2013-03-01 07:01:00,32.2,0.3,27.29,SSE,148,0.0,0.0,25,0.00,,---,0.00,VWS V14.01,2013-03-01 12:01:00,
2013-03-01 07:06:00,32.4,0.5,27.29,East,96,3.1,3.1,25,0.00,,---,0.00,VWS V14.01,2013-03-01 12:06:00,
2013-03-01 07:11:00,32.4,0.5,27.29,East,101,0.0,0.0,25,0.00,,---,0.00,VWS V14.01,2013-03-01 12:11:00,
2013-03-01 07:16:00,32.4,0.5,27.29,SSE,149,0.0,0.0,25,0.00,,---,0.00,VWS V14.01,2013-03-01 12:16:00,
2013-03-01 07:21:00,32.4,0.5,27.29,WNW,299,2.7,3.6,25,0.00,,---,0.00,VWS V14.01,2013-03-01 12:21:00,
2013-03-01 07:26:00,32.2,0.3,27.29,WNW,303,2.2,2.2,25,0.00,,---,0.00,VWS V14.01,2013-03-01 12:26:00,
2013-03-01 07:31:00,32.2,0.3,27.29,NW,306,0.0,0.0,25,0.00,,---,0.00,VWS V14.01,2013-03-01 12:31:00,
2013-03-01 07:36:00,32.2,0.3,27.29,SE,129,0.0,2.7,25,0.00,,---,0.00,VWS V14.01,2013-03-01 12:36:00,
2013-03-01 07:41:00,32.4,2.9,27.29,SE,129,0.0,0.0,28,0.00,,---,0.00,VWS V14.01,2013-03-01 12:41:00,
2013-03-01 07:46:00,32.4,2.9,27.29,SE,129,0.0,0.0,28,0.00,,---,0.00,VWS V14.01,2013-03-01 12:46:00,
2013-03-01 07:51:00,32.5,3.1,27.29,SE,129,0.0,0.0,28,0.00,,---,0.00,VWS V14.01,2013-03-01 12:51:00,
2013-03-01 07:56:00,32.5,4.6,27.29,SE,129,2.7,3.6,30,0.00,,---,0.00,VWS V14.01,2013-03-01 12:56:00,
2013-03-01 08:01:00,32.5,4.6,27.29,SE,129,0.0,0.0,30,0.00,,---,0.00,VWS V14.01,2013-03-01 13:01:00,
2013-03-01 08:06:00,32.5,4.6,27.29,SE,129,0.0,2.7,30,0.00,,---,0.00,VWS V14.01,2013-03-01 13:06:00,
2013-03-01 08:10:00,32.7,4.7,27.29,ESE,114,0.0,0.0,30,0.00,,---,0.00,VWS V14.01,2013-03-01 13:10:00,
2013-03-01 08:16:00,32.7,4.7,27.29,ESE,114,0.0,0.0,30,0.00,,---,0.00,VWS V14.01,2013-03-01 13:16:00,
2013-03-01 08:21:00,32.7,4.7,27.29,ESE,114,2.2,2.2,30,0.00,,---,0.00,VWS V14.01,2013-03-01 13:21:00,
2013-03-01 08:26:00,32.7,4.7,27.29,ESE,114,0.0,2.2,30,0.00,,---,0.00,VWS V14.01,2013-03-01 13:26:00,
2013-03-01 08:31:00,32.9,4.9,27.29,ESE,114,0.0,0.0,30,0.00,,---,0.00,VWS V14.01,2013-03-01 13:31:00,
2013-03-01 08:36:00,32.9,4.9,27.32,ESE,114,2.2,2.2,30,0.00,,---,0.00,VWS V14.01,2013-03-01 13:36:00,
2013-03-01 08:41:00,33.1,5.0,27.32,ESE,114,2.7,3.1,30,0.00,,---,0.00,VWS V14.01,2013-03-01 13:41:00,
2013-03-01 08:46:00,33.1,5.0,27.32,SSW,211,0.0,2.7,30,0.00,,---,0.00,VWS V14.01,2013-03-01 13:46:00,
2013-03-01 08:51:00,33.3,5.2,27.32,SE,129,0.0,2.7,30,0.00,,---,0.00,VWS V14.01,2013-03-01 13:51:00,
2013-03-01 08:56:00,33.3,5.9,27.32,ESE,123,0.0,0.0,31,0.00,,---,0.00,VWS V14.01,2013-03-01 13:56:00,
2013-03-01 09:00:00,33.4,6.1,27.32,ESE,118,2.7,2.7,31,0.00,,---,0.00,VWS V14.01,2013-03-01 14:00:00,
2013-03-01 09:05:00,33.6,6.2,27.32,ESE,117,3.1,3.6,31,0.00,,---,0.00,VWS V14.01,2013-03-01 14:05:00,
2013-03-01 09:11:00,33.6,6.2,27.32,ESE,117,2.2,2.7,31,0.00,,---,0.00,VWS V14.01,2013-03-01 14:11:00,
2013-03-01 09:16:00,33.8,6.4,27.32,ESE,111,2.7,3.1,31,0.00,,---,0.00,VWS V14.01,2013-03-01 14:16:00,
2013-03-01 09:21:00,34.0,6.5,27.32,East,99,2.7,2.7,31,0.00,,---,0.00,VWS V14.01,2013-03-01 14:21:00,
2013-03-01 09:25:00,34.3,6.9,27.32,ESE,123,3.1,3.1,31,0.00,,---,0.00,VWS V14.01,2013-03-01 14:25:00,
2013-03-01 09:30:00,34.5,7.0,27.32,ESE,111,2.7,2.7,31,0.00,,---,0.00,VWS V14.01,2013-03-01 14:30:00,
2013-03-01 09:35:00,35.1,7.5,27.32,East,83,0.0,0.0,31,0.00,,---,0.00,VWS V14.01,2013-03-01 14:35:00,
2013-03-01 09:40:00,35.4,7.8,27.32,ESE,105,2.7,2.7,31,0.00,,---,0.00,VWS V14.01,2013-03-01 14:40:00,
2013-03-01 09:45:00,35.6,7.2,27.32,WSW,244,0.0,3.1,30,0.00,,---,0.00,VWS V14.01,2013-03-01 14:45:00,
2013-03-01 09:50:00,35.6,6.5,27.32,SE,135,3.1,4.9,29,0.00,,---,0.00,VWS V14.01,2013-03-01 14:50:00,
2013-03-01 09:55:00,35.8,5.1,27.32,SE,124,4.0,4.5,27,0.00,,---,0.00,VWS V14.01,2013-03-01 14:55:00,
2013-03-01 10:00:00,36.0,2.7,27.32,SE,139,0.0,3.6,24,0.00,,---,0.00,VWS V14.01,2013-03-01 15:00:00,
2013-03-01 10:05:00,36.3,3.0,27.29,SE,128,5.4,5.4,24,0.00,,---,0.00,VWS V14.01,2013-03-01 15:05:00,
2013-03-01 10:10:00,36.7,1.4,27.29,SE,132,4.0,4.9,22,0.00,,---,0.00,VWS V14.01,2013-03-01 15:10:00,
2013-03-01 10:15:00,36.9,-1.5,27.29,SSE,151,3.1,3.1,19,0.00,,---,0.00,VWS V14.01,2013-03-01 15:15:00,
2013-03-01 10:20:00,37.0,-3.7,27.29,ESE,123,3.1,4.0,17,0.00,,---,0.00,VWS V14.01,2013-03-01 15:20:00,
2013-03-01 10:25:00,37.0,-3.7,27.29,East,97,0.0,3.6,17,0.00,,---,0.00,VWS V14.01,2013-03-01 15:25:00,
2013-03-01 10:30:00,37.0,-7.7,27.29,East,83,5.4,5.8,14,0.00,,---,0.00,VWS V14.01,2013-03-01 15:30:00,
2013-03-01 10:35:00,37.0,-7.7,27.29,SE,144,0.0,0.0,14,0.00,,---,0.00,VWS V14.01,2013-03-01 15:35:00,
2013-03-01 10:40:00,36.9,-7.9,27.29,East,84,2.2,2.7,14,0.00,,---,0.00,VWS V14.01,2013-03-01 15:40:00,
2013-03-01 10:45:00,36.9,-7.9,27.29,NNW,329,3.1,3.1,14,0.00,,---,0.00,VWS V14.01,2013-03-01 15:45:00,
2013-03-01 10:50:00,36.5,-11.3,27.29,NW,322,2.7,2.7,12,0.00,,---,0.00,VWS V14.01,2013-03-01 15:50:00,
2013-03-01 10:55:00,36.3,-11.4,27.29,North,353,0.0,2.2,12,0.00,,---,0.00,VWS V14.01,2013-03-01 15:55:00,
2013-03-01 11:00:00,36.5,-11.3,27.29,West,274,0.0,3.6,12,0.00,,---,0.00,VWS V14.01,2013-03-01 16:00:00,
2013-03-01 11:05:00,36.7,-11.1,27.32,SE,135,3.1,3.1,12,0.00,,---,0.00,VWS V14.01,2013-03-01 16:05:00,
2013-03-01 11:10:00,36.9,-11.0,27.32,WNW,299,2.7,3.1,12,0.00,,---,0.00,VWS V14.01,2013-03-01 16:10:00,
2013-03-01 11:15:00,36.7,-11.1,27.32,West,264,3.6,3.6,12,0.00,,---,0.00,VWS V14.01,2013-03-01 16:15:00,
2013-03-01 11:20:00,36.7,-11.1,27.32,SSW,193,3.1,3.1,12,0.00,,---,0.00,VWS V14.01,2013-03-01 16:20:00,
2013-03-01 11:25:00,37.0,-10.9,27.32,ENE,63,0.0,4.9,12,0.00,,---,0.00,VWS V14.01,2013-03-01 16:25:00,
2013-03-01 11:30:00,37.4,-12.3,27.32,NW,318,3.6,4.0,11,0.00,,---,0.00,VWS V14.01,2013-03-01 16:30:00,
2013-03-01 11:35:00,37.6,-12.2,27.32,NNW,334,3.1,4.0,11,0.00,,---,0.00,VWS V14.01,2013-03-01 16:35:00,
2013-03-01 11:40:00,37.8,-12.0,27.32,NE,36,2.2,4.0,11,0.00,,---,0.00,VWS V14.01,2013-03-01 16:40:00,
2013-03-01 11:45:00,37.9,-11.9,27.32,SE,135,3.1,3.1,11,0.00,,---,0.00,VWS V14.01,2013-03-01 16:45:00,
2013-03-01 11:50:00,38.1,-11.8,27.32,WSW,242,2.7,2.7,11,0.00,,---,0.00,VWS V14.01,2013-03-01 16:50:00,
2013-03-01 11:55:00,38.5,-11.5,27.32,WNW,284,3.1,3.1,11,0.00,,---,0.00,VWS V14.01,2013-03-01 16:55:00,
2013-03-01 12:00:00,38.5,-11.5,27.32,NW,312,2.7,3.1,11,0.00,,---,0.00,VWS V14.01,2013-03-01 17:00:00,
2013-03-01 12:05:00,37.9,-11.9,27.32,WNW,284,2.7,2.7,11,0.00,,---,0.00,VWS V14.01,2013-03-01 17:05:00,
2013-03-01 12:10:00,37.6,-12.2,27.32,WNW,303,0.0,0.0,11,0.00,,---,0.00,VWS V14.01,2013-03-01 17:10:00,
2013-03-01 12:15:00,37.6,-12.2,27.32,SW,235,4.0,4.0,11,0.00,,---,0.00,VWS V14.01,2013-03-01 17:15:00,
2013-03-01 12:20:00,37.6,-12.2,27.29,East,86,2.7,2.7,11,0.00,,---,0.00,VWS V14.01,2013-03-01 17:20:00,
2013-03-01 12:25:00,37.4,-12.3,27.29,NW,322,0.0,2.2,11,0.00,,---,0.00,VWS V14.01,2013-03-01 17:25:00,
2013-03-01 12:30:00,37.6,-12.2,27.29,SSW,209,3.1,3.1,11,0.00,,---,0.00,VWS V14.01,2013-03-01 17:30:00,
2013-03-01 12:35:00,37.6,-12.2,27.29,East,91,2.7,3.1,11,0.00,,---,0.00,VWS V14.01,2013-03-01 17:35:00,
2013-03-01 12:40:00,37.6,-12.2,27.29,ESE,112,2.7,2.7,11,0.00,,---,0.00,VWS V14.01,2013-03-01 17:40:00,
2013-03-01 12:45:00,37.4,-12.3,27.29,WSW,243,3.1,3.1,11,0.00,,---,0.00,VWS V14.01,2013-03-01 17:45:00,
2013-03-01 12:50:00,37.0,-10.9,27.29,WNW,299,0.0,2.2,12,0.00,,---,0.00,VWS V14.01,2013-03-01 17:50:00,
2013-03-01 12:55:00,37.0,-10.9,27.29,West,273,4.0,4.0,12,0.00,,---,0.00,VWS V14.01,2013-03-01 17:55:00,
2013-03-01 13:00:00,36.9,-11.0,27.29,WSW,252,3.1,3.1,12,0.00,,---,0.00,VWS V14.01,2013-03-01 18:00:00,
2013-03-01 13:05:00,36.7,-11.1,27.29,West,263,3.1,3.1,12,0.00,,---,0.00,VWS V14.01,2013-03-01 18:05:00,
2013-03-01 13:10:00,36.5,-11.3,27.29,WSW,241,2.2,2.2,12,0.00,,---,0.00,VWS V14.01,2013-03-01 18:10:00,
2013-03-01 13:15:00,36.7,-11.1,27.29,WSW,239,0.0,0.0,12,0.00,,---,0.00,VWS V14.01,2013-03-01 18:15:00,
2013-03-01 13:20:00,36.9,-11.0,27.29,East,96,3.6,5.8,12,0.00,,---,0.00,VWS V14.01,2013-03-01 18:20:00,
2013-03-01 13:25:00,36.9,-7.9,27.29,ESE,102,3.6,3.6,14,0.00,,---,0.00,VWS V14.01,2013-03-01 18:25:00,
2013-03-01 13:30:00,37.0,-7.7,27.29,SE,138,4.9,6.3,14,0.00,,---,0.00,VWS V14.01,2013-03-01 18:30:00,
2013-03-01 13:35:00,37.2,-7.6,27.29,SE,124,0.0,0.0,14,0.00,,---,0.00,VWS V14.01,2013-03-01 18:35:00,
2013-03-01 13:40:00,37.0,-10.9,27.29,SSW,196,2.2,2.2,12,0.00,,---,0.00,VWS V14.01,2013-03-01 18:40:00,
2013-03-01 13:45:00,37.2,-10.7,27.29,WNW,287,0.0,2.7,12,0.00,,---,0.00,VWS V14.01,2013-03-01 18:45:00,
2013-03-01 13:50:00,37.0,-10.9,27.29,SE,136,2.7,2.7,12,0.00,,---,0.00,VWS V14.01,2013-03-01 18:50:00,
2013-03-01 13:55:00,37.0,-10.9,27.29,WSW,239,0.0,0.0,12,0.00,,---,0.00,VWS V14.01,2013-03-01 18:55:00,
2013-03-01 14:00:00,37.0,-10.9,27.29,ESE,123,3.1,3.6,12,0.00,,---,0.00,VWS V14.01,2013-03-01 19:00:00,
2013-03-01 14:05:00,37.0,-7.7,27.26,NE,46,3.1,5.8,14,0.00,,---,0.00,VWS V14.01,2013-03-01 19:05:00,
2013-03-01 14:10:00,37.0,-7.7,27.26,NE,55,3.6,3.6,14,0.00,,---,0.00,VWS V14.01,2013-03-01 19:10:00,
2013-03-01 14:15:00,37.4,-7.4,27.26,SSE,147,2.7,3.6,14,0.00,,---,0.00,VWS V14.01,2013-03-01 19:15:00,
2013-03-01 14:20:00,37.6,-12.2,27.26,SE,128,3.6,3.6,11,0.00,,---,0.00,VWS V14.01,2013-03-01 19:20:00,
2013-03-01 14:25:00,37.8,-12.0,27.29,SE,132,2.7,3.1,11,0.00,,---,0.00,VWS V14.01,2013-03-01 19:25:00,
2013-03-01 14:30:00,38.1,-11.8,27.29,SE,125,3.6,4.9,11,0.00,,---,0.00,VWS V14.01,2013-03-01 19:30:00,
2013-03-01 14:35:00,38.1,-11.8,27.26,SE,131,2.2,3.6,11,0.00,,---,0.00,VWS V14.01,2013-03-01 19:35:00,
2013-03-01 14:40:00,38.1,-11.8,27.26,ESE,118,4.0,4.5,11,0.00,,---,0.00,VWS V14.01,2013-03-01 19:40:00,
2013-03-01 14:45:00,38.1,-11.8,27.26,ESE,111,2.7,3.1,11,0.00,,---,0.00,VWS V14.01,2013-03-01 19:45:00,
2013-03-01 14:50:00,38.3,-11.6,27.26,SE,130,4.9,4.9,11,0.00,,---,0.00,VWS V14.01,2013-03-01 19:50:00,
2013-03-01 14:55:00,38.5,-11.5,27.26,SE,140,0.0,3.6,11,0.00,,---,0.00,VWS V14.01,2013-03-01 19:55:00,
2013-03-01 15:00:00,38.7,-11.3,27.26,ESE,118,0.0,2.2,11,0.00,,---,0.00,VWS V14.01,2013-03-01 20:00:00,
2013-03-01 15:05:00,38.5,-11.5,27.26,ENE,58,4.9,4.9,11,0.00,,---,0.00,VWS V14.01,2013-03-01 20:05:00,
2013-03-01 15:10:00,38.5,-11.5,27.26,East,86,2.2,2.2,11,0.00,,---,0.00,VWS V14.01,2013-03-01 20:10:00,
2013-03-01 15:15:00,38.5,-11.5,27.26,NW,305,3.6,4.9,11,0.00,,---,0.00,VWS V14.01,2013-03-01 20:15:00,
2013-03-01 15:20:00,38.1,-11.8,27.26,SE,144,2.7,2.7,11,0.00,,---,0.00,VWS V14.01,2013-03-01 20:20:00,
2013-03-01 15:25:00,37.9,-11.9,27.26,ESE,102,0.0,0.0,11,0.00,,---,0.00,VWS V14.01,2013-03-01 20:25:00,
2013-03-01 15:30:00,37.9,-11.9,27.26,East,83,3.6,4.0,11,0.00,,---,0.00,VWS V14.01,2013-03-01 20:30:00,
2013-03-01 15:35:00,37.9,-11.9,27.26,SW,227,0.0,0.0,11,0.00,,---,0.00,VWS V14.01,2013-03-01 20:35:00,
2013-03-01 15:40:00,37.9,-11.9,27.26,South,178,2.2,2.2,11,0.00,,---,0.00,VWS V14.01,2013-03-01 20:40:00,
2013-03-01 15:45:00,37.9,-11.9,27.26,South,181,0.0,0.0,11,0.00,,---,0.00,VWS V14.01,2013-03-01 20:45:00,
2013-03-01 15:50:00,37.9,-11.9,27.26,East,83,6.3,6.3,11,0.00,,---,0.00,VWS V14.01,2013-03-01 20:50:00,
2013-03-01 15:55:00,37.8,-12.0,27.26,NE,34,0.0,2.7,11,0.00,,---,0.00,VWS V14.01,2013-03-01 20:55:00,
2013-03-01 16:00:00,37.6,-12.2,27.26,ESE,115,2.7,4.0,11,0.00,,---,0.00,VWS V14.01,2013-03-01 21:00:00,
2013-03-01 16:05:00,37.6,-12.2,27.26,ESE,114,2.2,2.2,11,0.00,,---,0.00,VWS V14.01,2013-03-01 21:05:00,
2013-03-01 16:10:00,37.8,-12.0,27.26,North,353,4.0,7.2,11,0.00,,---,0.00,VWS V14.01,2013-03-01 21:10:00,
2013-03-01 16:15:00,37.6,-12.2,27.26,SE,133,2.7,3.1,11,0.00,,---,0.00,VWS V14.01,2013-03-01 21:15:00,
2013-03-01 16:20:00,37.4,-12.3,27.26,East,88,2.7,2.7,11,0.00,,---,0.00,VWS V14.01,2013-03-01 21:20:00,
2013-03-01 16:25:00,37.2,-10.7,27.26,ESE,108,2.7,5.4,12,0.00,,---,0.00,VWS V14.01,2013-03-01 21:25:00,
2013-03-01 16:30:00,37.2,-10.7,27.26,NE,53,3.6,3.6,12,0.00,,---,0.00,VWS V14.01,2013-03-01 21:30:00,
2013-03-01 16:35:00,37.0,-10.9,27.26,South,185,5.4,5.4,12,0.00,,---,0.00,VWS V14.01,2013-03-01 21:35:00,
2013-03-01 16:40:00,37.0,-10.9,27.26,East,81,2.7,3.6,12,0.00,,---,0.00,VWS V14.01,2013-03-01 21:40:00,
2013-03-01 16:45:00,37.0,-10.9,27.26,NE,38,2.7,2.7,12,0.00,,---,0.00,VWS V14.01,2013-03-01 21:45:00,
2013-03-01 16:50:00,37.0,-10.9,27.26,South,191,3.1,4.0,12,0.00,,---,0.00,VWS V14.01,2013-03-01 21:50:00,
2013-03-01 16:55:00,36.9,-11.0,27.26,ENE,75,2.2,3.1,12,0.00,,---,0.00,VWS V14.01,2013-03-01 21:55:00,
2013-03-01 17:00:00,36.9,-11.0,27.26,North,7,2.7,3.1,12,0.00,,---,0.00,VWS V14.01,2013-03-01 22:00:00,
2013-03-01 17:05:00,36.9,-11.0,27.29,ENE,57,3.6,5.8,12,0.00,,---,0.00,VWS V14.01,2013-03-01 22:05:00,
2013-03-01 17:10:00,36.9,-11.0,27.29,NE,54,0.0,3.1,12,0.00,,---,0.00,VWS V14.01,2013-03-01 22:10:00,
2013-03-01 17:15:00,36.9,-11.0,27.29,North,357,3.1,4.0,12,0.00,,---,0.00,VWS V14.01,2013-03-01 22:15:00,
2013-03-01 17:20:00,36.9,-11.0,27.29,North,8,2.2,3.1,12,0.00,,---,0.00,VWS V14.01,2013-03-01 22:20:00,
2013-03-01 17:25:00,36.9,-11.0,27.29,ESE,106,4.0,4.0,12,0.00,,---,0.00,VWS V14.01,2013-03-01 22:25:00,
2013-03-01 17:30:00,36.7,-11.1,27.29,NW,310,2.7,3.1,12,0.00,,---,0.00,VWS V14.01,2013-03-01 22:30:00,
2013-03-01 17:35:00,36.7,-11.1,27.29,NE,45,0.0,0.0,12,0.00,,---,0.00,VWS V14.01,2013-03-01 22:35:00,
2013-03-01 17:40:00,36.7,-11.1,27.29,East,89,2.7,3.6,12,0.00,,---,0.00,VWS V14.01,2013-03-01 22:40:00,
2013-03-01 17:45:00,36.7,-11.1,27.29,NW,321,3.6,3.6,12,0.00,,---,0.00,VWS V14.01,2013-03-01 22:45:00,
2013-03-01 17:50:00,36.5,-11.3,27.29,NNE,28,2.7,2.7,12,0.00,,---,0.00,VWS V14.01,2013-03-01 22:50:00,
2013-03-01 17:55:00,36.3,-11.4,27.29,WNW,291,2.2,3.1,12,0.00,,---,0.00,VWS V14.01,2013-03-01 22:55:00,
2013-03-01 18:00:00,36.3,-11.4,27.29,WNW,287,7.6,7.6,12,0.00,,---,0.00,VWS V14.01,2013-03-01 23:00:00,
2013-03-01 18:05:00,36.1,-11.6,27.29,NNW,334,5.4,5.4,12,0.00,,---,0.00,VWS V14.01,2013-03-01 23:05:00,
2013-03-01 18:10:00,36.1,-11.6,27.29,WNW,299,3.1,3.1,12,0.00,,---,0.00,VWS V14.01,2013-03-01 23:10:00,
2013-03-01 18:15:00,36.0,-11.7,27.29,SSE,147,3.6,4.0,12,0.00,,---,0.00,VWS V14.01,2013-03-01 23:15:00,
2013-03-01 18:20:00,36.0,-11.7,27.29,East,96,3.1,3.1,12,0.00,,---,0.00,VWS V14.01,2013-03-01 23:20:00,
2013-03-01 18:25:00,36.0,-11.7,27.29,ENE,71,0.0,0.0,12,0.00,,---,0.00,VWS V14.01,2013-03-01 23:25:00,
2013-03-01 18:30:00,35.8,-11.9,27.29,North,353,3.6,3.6,12,0.00,,---,0.00,VWS V14.01,2013-03-01 23:30:00,
2013-03-01 18:35:00,35.8,-11.9,27.29,NE,43,0.0,0.0,12,0.00,,---,0.00,VWS V14.01,2013-03-01 23:35:00,
2013-03-01 18:40:00,35.8,-11.9,27.29,ENE,71,3.1,3.1,12,0.00,,---,0.00,VWS V14.01,2013-03-01 23:40:00,
2013-03-01 18:45:00,35.6,-12.0,27.29,ESE,117,0.0,0.0,12,0.00,,---,0.00,VWS V14.01,2013-03-01 23:45:00,
2013-03-01 18:50:00,35.6,-12.0,27.29,ENE,78,3.1,3.6,12,0.00,,---,0.00,VWS V14.01,2013-03-01 23:50:00,
2013-03-01 18:55:00,35.6,-12.0,27.29,ENE,77,0.0,0.0,12,0.00,,---,0.00,VWS V14.01,2013-03-01 23:55:00,
2013-03-01 19:00:00,35.6,-12.0,27.29,ESE,118,0.0,2.2,12,0.00,,---,0.00,VWS V14.01,2013-03-02 00:00:00,
2013-03-01 19:05:00,35.6,-12.0,27.29,ESE,118,0.0,0.0,12,0.00,,---,0.00,VWS V14.01,2013-03-02 00:05:00,
2013-03-01 19:10:00,35.6,-12.0,27.29,ESE,118,0.0,0.0,12,0.00,,---,0.00,VWS V14.01,2013-03-02 00:10:00,
2013-03-01 19:15:00,35.4,-12.1,27.29,ESE,120,0.0,2.2,12,0.00,,---,0.00,VWS V14.01,2013-03-02 00:15:00,
2013-03-01 19:20:00,35.4,-12.1,27.29,ESE,120,0.0,0.0,12,0.00,,---,0.00,VWS V14.01,2013-03-02 00:20:00,
2013-03-01 19:25:00,35.4,-12.1,27.29,ESE,121,0.0,0.0,12,0.00,,---,0.00,VWS V14.01,2013-03-02 00:25:00,
2013-03-01 19:30:00,35.4,-12.1,27.29,East,91,0.0,0.0,12,0.00,,---,0.00,VWS V14.01,2013-03-02 00:30:00,
2013-03-01 19:35:00,35.2,-12.3,27.29,North,357,0.0,0.0,12,0.00,,---,0.00,VWS V14.01,2013-03-02 00:35:00,
2013-03-01 19:40:00,35.2,-12.3,27.32,North,357,0.0,0.0,12,0.00,,---,0.00,VWS V14.01,2013-03-02 00:40:00,
2013-03-01 19:45:00,35.1,-12.4,27.32,ENE,74,0.0,0.0,12,0.00,,---,0.00,VWS V14.01,2013-03-02 00:45:00,
2013-03-01 19:50:00,35.1,-12.4,27.32,ENE,74,0.0,0.0,12,0.00,,---,0.00,VWS V14.01,2013-03-02 00:50:00,
2013-03-01 19:55:00,35.1,-12.4,27.32,ENE,74,0.0,0.0,12,0.00,,---,0.00,VWS V14.01,2013-03-02 00:55:00,
2013-03-01 20:00:00,34.9,-12.6,27.32,ENE,74,0.0,0.0,12,0.00,,---,0.00,VWS V14.01,2013-03-02 01:00:00,
2013-03-01 20:05:00,34.9,-12.6,27.32,ESE,117,0.0,2.2,12,0.00,,---,0.00,VWS V14.01,2013-03-02 01:05:00,
2013-03-01 20:10:00,34.9,-12.6,27.32,ESE,117,0.0,0.0,12,0.00,,---,0.00,VWS V14.01,2013-03-02 01:10:00,
2013-03-01 20:15:00,34.7,-12.7,27.32,ESE,117,0.0,0.0,12,0.00,,---,0.00,VWS V14.01,2013-03-02 01:15:00,
2013-03-01 20:20:00,34.7,-12.7,27.32,West,272,0.0,2.7,12,0.00,,---,0.00,VWS V14.01,2013-03-02 01:20:00,
2013-03-01 20:25:00,34.7,-12.7,27.29,NE,40,2.2,3.6,12,0.00,,---,0.00,VWS V14.01,2013-03-02 01:25:00,
2013-03-01 20:30:00,34.7,-12.7,27.29,ESE,110,0.0,0.0,12,0.00,,---,0.00,VWS V14.01,2013-03-02 01:30:00,
2013-03-01 20:35:00,34.5,-12.9,27.29,SE,131,3.1,3.6,12,0.00,,---,0.00,VWS V14.01,2013-03-02 01:35:00,
2013-03-01 20:40:00,34.5,-8.4,27.29,SW,216,2.7,2.7,15,0.00,,---,0.00,VWS V14.01,2013-03-02 01:40:00,
2013-03-01 20:45:00,34.5,-8.4,27.29,ESE,122,3.1,4.9,15,0.00,,---,0.00,VWS V14.01,2013-03-02 01:45:00,
2013-03-01 20:50:00,34.5,-8.4,27.29,ESE,115,0.0,0.0,15,0.00,,---,0.00,VWS V14.01,2013-03-02 01:50:00,
2013-03-01 20:55:00,34.5,-8.4,27.29,NW,312,3.1,3.1,15,0.00,,---,0.00,VWS V14.01,2013-03-02 01:55:00,
2013-03-01 21:00:00,34.3,-8.5,27.29,NE,39,2.7,3.1,15,0.00,,---,0.00,VWS V14.01,2013-03-02 02:00:00,
2013-03-01 21:05:00,34.3,-8.5,27.29,East,92,2.7,2.7,15,0.00,,---,0.00,VWS V14.01,2013-03-02 02:05:00,
2013-03-01 21:10:00,34.3,-8.5,27.29,ESE,106,2.2,3.1,15,0.00,,---,0.00,VWS V14.01,2013-03-02 02:10:00,
2013-03-01 21:15:00,34.3,-8.5,27.29,NNE,21,3.1,3.1,15,0.00,,---,0.00,VWS V14.01,2013-03-02 02:15:00,
2013-03-01 21:20:00,34.2,-8.6,27.29,ESE,123,3.6,3.6,15,0.00,,---,0.00,VWS V14.01,2013-03-02 02:20:00,
2013-03-01 21:25:00,34.2,-8.6,27.29,ESE,103,3.1,5.8,15,0.00,,---,0.00,VWS V14.01,2013-03-02 02:25:00,
2013-03-01 21:30:00,34.2,-8.6,27.29,ESE,104,4.0,4.0,15,0.00,,---,0.00,VWS V14.01,2013-03-02 02:30:00,
2013-03-01 21:35:00,34.2,-8.6,27.29,ESE,119,0.0,0.0,15,0.00,,---,0.00,VWS V14.01,2013-03-02 02:35:00,
2013-03-01 21:40:00,34.0,-8.8,27.29,East,88,3.1,3.1,15,0.00,,---,0.00,VWS V14.01,2013-03-02 02:40:00,
2013-03-01 21:45:00,34.2,-8.6,27.29,ESE,113,0.0,2.2,15,0.00,,---,0.00,VWS V14.01,2013-03-02 02:45:00,
2013-03-01 21:50:00,34.2,-8.6,27.29,ENE,63,3.1,3.1,15,0.00,,---,0.00,VWS V14.01,2013-03-02 02:50:00,
2013-03-01 21:55:00,34.2,-8.6,27.32,ESE,104,2.2,2.7,15,0.00,,---,0.00,VWS V14.01,2013-03-02 02:55:00,
2013-03-01 22:00:00,34.2,-8.6,27.32,SE,139,3.1,3.1,15,0.00,,---,0.00,VWS V14.01,2013-03-02 03:00:00,
2013-03-01 22:05:00,34.2,-8.6,27.32,SSE,151,8.3,8.3,15,0.00,,---,0.00,VWS V14.01,2013-03-02 03:05:00,
2013-03-01 22:10:00,34.2,-8.6,27.29,ESE,122,2.7,2.7,15,0.00,,---,0.00,VWS V14.01,2013-03-02 03:10:00,
2013-03-01 22:15:00,34.2,-8.6,27.29,SE,137,3.1,3.1,15,0.00,,---,0.00,VWS V14.01,2013-03-02 03:15:00,
2013-03-01 22:20:00,34.2,-8.6,27.29,ENE,75,0.0,0.0,15,0.00,,---,0.00,VWS V14.01,2013-03-02 03:20:00,
2013-03-01 22:25:00,34.2,-8.6,27.29,SE,133,4.0,4.0,15,0.00,,---,0.00,VWS V14.01,2013-03-02 03:25:00,
2013-03-01 22:30:00,34.2,-8.6,27.29,ESE,104,0.0,0.0,15,0.00,,---,0.00,VWS V14.01,2013-03-02 03:30:00,
2013-03-01 22:35:00,34.2,-6.1,27.29,NE,53,2.2,2.2,17,0.00,,---,0.00,VWS V14.01,2013-03-02 03:35:00,
2013-03-01 22:40:00,34.2,-6.1,27.32,SSE,151,2.2,3.1,17,0.00,,---,0.00,VWS V14.01,2013-03-02 03:40:00,
2013-03-01 22:45:00,34.0,-6.2,27.32,SE,136,2.7,5.4,17,0.00,,---,0.00,VWS V14.01,2013-03-02 03:45:00,
2013-03-01 22:50:00,34.0,-6.2,27.32,NE,52,3.1,3.1,17,0.00,,---,0.00,VWS V14.01,2013-03-02 03:50:00,
2013-03-01 22:55:00,34.0,-6.2,27.29,SE,131,2.7,2.7,17,0.00,,---,0.00,VWS V14.01,2013-03-02 03:55:00,
2013-03-01 23:00:00,34.0,-2.9,27.29,ESE,120,0.0,0.0,20,0.00,,---,0.00,VWS V14.01,2013-03-02 04:00:00,
2013-03-01 23:05:00,33.8,-3.0,27.29,ESE,120,2.2,2.2,20,0.00,,---,0.00,VWS V14.01,2013-03-02 04:05:00,
2013-03-01 23:10:00,33.8,-3.0,27.29,SE,135,2.7,2.7,20,0.00,,---,0.00,VWS V14.01,2013-03-02 04:10:00,
2013-03-01 23:15:00,33.8,-3.0,27.29,South,182,0.0,2.2,20,0.00,,---,0.00,VWS V14.01,2013-03-02 04:15:00,
2013-03-01 23:20:00,33.8,-3.0,27.29,SE,125,3.1,3.1,20,0.00,,---,0.00,VWS V14.01,2013-03-02 04:20:00,
2013-03-01 23:25:00,33.8,-1.0,27.29,North,353,3.6,3.6,22,0.00,,---,0.00,VWS V14.01,2013-03-02 04:25:00,
2013-03-01 23:30:00,33.6,-0.2,27.29,SSE,161,4.0,4.0,23,0.00,,---,0.00,VWS V14.01,2013-03-02 04:30:00,
2013-03-01 23:35:00,33.6,-0.2,27.29,SE,131,5.4,5.4,23,0.00,,---,0.00,VWS V14.01,2013-03-02 04:35:00,
2013-03-01 23:40:00,33.6,-0.2,27.29,NE,56,2.7,3.1,23,0.00,,---,0.00,VWS V14.01,2013-03-02 04:40:00,
2013-03-01 23:45:00,33.6,1.6,27.29,East,91,0.0,2.2,25,0.00,,---,0.00,VWS V14.01,2013-03-02 04:45:00,
2013-03-01 23:50:00,33.6,1.6,27.29,ESE,120,2.7,3.1,25,0.00,,---,0.00,VWS V14.01,2013-03-02 04:50:00,
2013-03-01 23:55:00,33.4,1.4,27.29,SSW,199,3.1,3.6,25,0.00,,---,0.00,VWS V14.01,2013-03-02 04:55:00,